DW9686 Weather Reports


time (UTC)temp
C
wind
direction
speed
KPH
gust
KPH
rain 1hr
cm
rain 24hr
cm
rain mn
cm
humidity
%
barometer
mb
20260906224536 18 265 4.8 11.3 0.00 0.00 0.00 60 1014.4
20260906223054 18 265 8.0 16.1 0.00 0.00 0.00 61 1014.4
20260906221536 18 263 4.8 11.3 0.00 0.00 0.00 60 1014.4
20260906220040 19 263 6.4 16.1 0.00 0.00 0.00 56 1014.3
20260906214557 18 261 8.0 16.1 0.00 0.00 0.00 55 1014.2
20260906213039 18 272 8.0 14.5 0.00 0.00 0.00 56 1014.3
20260906211545 19 281 11.3 20.9 0.00 0.00 0.00 56 1014.4
20260906210108 19 263 6.4 12.9 0.00 0.00 0.00 59 1014.3
20260906204544 19 265 11.3 17.7 0.00 0.00 0.00 58 1014.2
20260906203040 19 260 12.9 19.3 0.00 0.00 0.00 55 1014.4
20260906201547 19 300 9.7 17.7 0.00 0.00 0.00 57 1014.5
20260906200040 18 317 8.0 19.3 0.00 0.00 0.00 60 1014.4
20260906194536 18 271 9.7 20.9 0.00 0.00 0.00 62 1014.4
20260906193039 17 281 12.9 22.5 0.00 0.00 0.00 61 1014.4
20260906191548 17 273 12.9 24.1 0.00 0.00 0.00 63 1014.6
20260906190038 17 265 11.3 19.3 0.00 0.00 0.00 65 1014.7
20260906184539 16 293 11.3 19.3 0.00 0.00 0.00 65 1014.9
20260906183036 15 282 3.2 12.9 0.00 0.00 0.00 72 1015.0
20260906181541 15 287 3.2 6.4 0.00 0.00 0.00 75 1014.9
20260906180057 15 0 0.0 0.0 0.00 0.00 0.00 77 1015.0
20260906174550 14 0 0.0 11.3 0.00 0.00 0.00 79 1015.0
20260906173036 13 286 3.2 11.3 0.00 0.00 0.00 81 1015.0
20260906171538 13 286 6.4 14.5 0.00 0.00 0.00 82 1014.9
20260906170036 13 290 11.3 19.3 0.00 0.00 0.00 83 1014.7
20260906164537 13 277 11.3 17.7 0.00 0.00 0.00 82 1014.8
20260906163038 13 273 6.4 12.9 0.00 0.00 0.00 84 1015.4
20260906161538 13 279 6.4 12.9 0.00 0.00 0.00 85 1015.8
20260906160045 12 283 4.8 9.7 0.00 0.00 0.00 83 1016.0
20260906154545 12 283 1.6 6.4 0.00 0.00 0.00 80 1015.9
20260906153102 13 283 8.0 17.7 0.00 0.00 0.00 76 1015.6
20260906151552 12 296 11.3 17.7 0.00 0.00 0.00 78 1014.9
20260906150044 12 313 6.4 14.5 0.00 0.00 0.00 81 1014.7
20260906144543 12 277 4.8 9.7 0.00 0.00 0.00 83 1014.8
20260906143043 11 332 0.0 4.8 0.00 0.00 0.00 82 1015.0
20260906141538 11 332 4.8 9.7 0.00 0.00 0.00 81 1014.7
20260906140038 11 333 6.4 12.9 0.00 0.00 0.00 80 1014.5
20260906134549 12 336 4.8 16.1 0.00 0.00 0.00 79 1014.5
20260906133049 12 344 8.0 16.1 0.00 0.00 0.00 79 1014.3
20260906131539 11 336 8.0 16.1 0.00 0.00 0.00 80 1014.3
20260906130035 11 323 6.4 17.7 0.00 0.00 0.00 82 1014.4
20260906124539 11 315 6.4 14.5 0.00 0.00 0.00 82 1014.3
20260906123052 11 311 8.0 16.1 0.00 0.00 0.00 81 1014.5
20260906121541 11 313 8.0 14.5 0.00 0.00 0.00 81 1014.6
20260906120039 11 325 4.8 12.9 0.00 0.00 0.00 80 1014.7
20260906114541 11 325 6.4 12.9 0.00 0.00 0.00 80 1014.6
20260906113043 11 325 4.8 12.9 0.00 0.00 0.00 81 1014.8
20260906111538 11 323 6.4 12.9 0.00 0.00 0.00 81 1014.8
20260906110035 11 320 4.8 12.9 0.00 0.00 0.00 81 1015.0
20260906104536 11 319 4.8 14.5 0.00 0.00 0.00 80 1015.3
20260906103047 11 319 6.4 16.1 0.00 0.00 0.00 81 1015.0
20260906101538 11 307 8.0 17.7 0.00 0.00 0.00 81 1014.9
20260906100038 11 304 9.7 19.3 0.00 0.00 0.00 80 1014.7
20260906094541 11 315 9.7 22.5 0.00 0.00 0.00 81 1014.8
20260906093040 11 298 14.5 19.3 0.00 0.00 0.00 79 1014.9
20260906091543 11 340 8.0 14.5 0.00 0.00 0.00 78 1014.8
20260906090056 11 340 6.4 14.5 0.00 0.00 0.00 77 1014.9
20260906084538 11 342 8.0 14.5 0.00 0.00 0.00 77 1014.8
20260906083038 11 342 3.2 9.7 0.00 0.00 0.00 77 1015.3
20260906081539 11 342 6.4 12.9 0.00 0.00 0.00 77 1015.4
20260906080038 12 343 6.4 16.1 0.00 0.00 0.00 76 1015.4
20260906074536 12 347 8.0 16.1 0.00 0.00 0.00 76 1015.6
20260906073040 12 350 4.8 14.5 0.00 0.00 0.00 75 1015.6
20260906071537 12 360 4.8 11.3 0.00 0.00 0.00 74 1015.6
20260906070041 12 22 1.6 6.4 0.00 0.00 0.00 75 1015.7
20260906064535 13 23 1.6 6.4 0.00 0.00 0.00 75 1015.7
20260906063047 13 0 0.0 6.4 0.00 0.00 0.00 75 1015.6
20260906061538 13 23 1.6 6.4 0.00 0.00 0.00 76 1015.7
20260906060039 13 23 3.2 6.4 0.00 0.00 0.00 75 1015.7
20260906054541 14 23 3.2 8.0 0.00 0.00 0.00 75 1015.8
20260906053037 15 24 3.2 6.4 0.00 0.00 0.00 74 1015.9
20260906051552 15 24 1.6 6.4 0.00 0.00 0.00 73 1015.9
20260906050049 16 40 6.4 16.1 0.00 0.00 0.00 69 1016.0
20260906044546 17 191 3.2 6.4 0.00 0.00 0.00 68 1015.7
20260906043047 17 189 1.6 6.4 0.00 0.00 0.00 68 1015.7
20260906041536 17 189 3.2 4.8 0.00 0.00 0.00 66 1015.8
20260906040038 17 189 4.8 6.4 0.00 0.00 0.00 65 1015.7
20260906034540 17 188 4.8 6.4 0.00 0.00 0.00 66 1015.7
20260906033037 18 0 0.0 0.0 0.00 0.00 0.00 63 1015.6
20260906031546 18 0 0.0 0.0 0.00 0.00 0.00 61 1015.5
20260906030039 19 0 0.0 0.0 0.00 0.00 0.00 60 1015.2
20260906024542 20 0 0.0 0.0 0.00 0.00 0.00 53 1015.2
20260906023037 20 0 0.0 0.0 0.00 0.00 0.00 57 1015.1
20260906021544 20 0 0.0 0.0 0.00 0.00 0.00 54 1015.2
20260906020042 21 0 0.0 0.0 0.00 0.00 0.00 55 1015.2
20260906014541 21 0 0.0 0.0 0.00 0.00 0.00 49 1015.3
20260906013055 22 0 0.0 0.0 0.00 0.00 0.00 53 1015.2
20260906011547 22 0 0.0 0.0 0.00 0.00 0.00 50 1015.3
20260906010043 22 0 0.0 4.8 0.00 0.00 0.00 47 1015.4
20260906004539 22 184 0.0 6.4 0.00 0.00 0.00 53 1015.3
20260906003041 22 184 1.6 6.4 0.00 0.00 0.00 51 1015.4
20260906001544 22 184 3.2 8.0 0.00 0.00 0.00 50 1015.4
20260906000047 22 184 3.2 8.0 0.00 0.00 0.00 51 1015.4
20260905234539 22 184 3.2 9.7 0.00 0.00 0.00 49 1015.5
20260905233043 22 267 1.6 6.4 0.00 0.00 0.00 47 1015.4
20260905231542 22 267 4.8 9.7 0.00 0.00 0.00 49 1015.5
20260905230042 22 0 0.0 3.2 0.00 0.00 0.00 47 1015.5